Location: Arpaise
(41.0333°N, 14.7333°E)
Time: 15:45:56
(UTC+00:00)

Cosmos 2154 Rocket - Pass Details

Date: 05 July 2020
Orbit: 967 x 995 km, 82.9° (Epoch: 11 August)

Event Time Altitude Azimuth Distance (km) Brightness Sun altitude
Exits shadow 21:23:05 43° 154° (SSE) 1,327 4.2 -22.0°
Maximum altitude 21:25:01 64° 93° (E) 1,067 4.0 -22.1°
Drops below altitude 10° 21:31:09 10° 14° (NNE) 2,720 7.0 -22.6°
Sets 21:33:41 0° 11° (N) 3,674 7.9 -22.8°
